GFSFLT2_prec_cloud_189.txt.gz
Cloud_Cover
10 25 1 1 0 0 0 0 0 0 0 0 0 0 0 2 3 0 0 0 0 0 4 5 31 24 99
99 91 58 43 16 0 0 0 0 0 0 0 0 0 0 0 0 5 4 0 0 1 4 3 1 0 7
76 34 34 100 100 16 0 0 0 0 0 0 0 0 0 0 1 5 5 5 1 0 0 0 0 0 0
100 100 100 100 100 63 71 42 17 12 1 0 0 0 0 0 0 0 3 5 4 5 4 0 0 0 0
100 100 100 100 100 92 100 100 100 97 4 0 0 0 0 0 0 0 0 0 0 5 5 5 5 1 0
100 100 80 100 100 100 100 100 100 100 19 5 5 4 0 0 0 0 0 0 0 3 5 8 46 5 5
100 100 100 95 100 100 100 100 100 100 100 100 12 5 2 0 0 0 0 0 0 0 11 1 0 0 8
100 91 64 74 55 68 99 100 100 100 100 100 9 6 5 5 4 0 0 0 0 4 5 3 0 0 0
100 100 100 100 100 100 100 100 100 100 100 100 93 4 5 5 5 5 5 5 5 5 5 79 14 5 5
100 100 100 100 100 100 100 100 100 100 100 99 100 100 95 8 5 5 10 10 40 5 5 96 100 97 29
100 100 100 100 100 100 100 100 100 100 100 100 100 100 100 100 98 48 29 68 50 19 7 7 97 100 100
100 100 100 100 100 100 100 100 100 100 100 100 100 100 100 100 100 100 100 100 100 100 94 80 100 100 100
100 100 100 100 100 100 100 100 100 100 100 100 100 100 100 100 100 100 100 100 100 100 100 92 99 89 86
100 100 100 67 100 100 100 100 100 100 100 100 100 100 100 100 100 100 100 100 100 100 100 100 100 100 100
100 100 100 100 100 100 100 100 100 100 100 100 100 100 100 100 100 100 100 100 100 100 100 100 100 100 100
100 100 100 100 100 95 100 100 100 100 100 100 100 100 100 100 100 100 100 100 100 100 100 100 100 100 100
100 100 100 100 100 100 100 100 100 100 100 100 100 100 100 100 100 100 100 100 100 100 100 100 100 100 100

GFSFLT2_prec_cloud_195.txt.gz
Cloud_Cover
5 28 5 0 0 0 0 9 1 0 5 100 0 0 0 0 3 3 2 1 3 4 0 0 4 0 39
1 1 5 0 0 0 4 62 8 0 44 100 99 0 0 0 0 0 1 0 0 3 0 6 26 0 0
5 12 17 66 2 2 19 70 80 57 100 82 20 6 3 10 0 0 0 0 0 0 0 0 0 0 0
27 61 5 14 91 87 99 100 95 50 74 100 100 100 65 0 1 0 0 0 0 0 0 0 0 0 0
96 91 46 80 64 100 48 100 87 81 6 5 7 88 100 100 84 21 0 0 0 0 0 1 4 5 5
76 100 100 100 54 17 30 100 100 100 58 12 26 23 5 40 98 6 0 4 4 0 0 5 5 5 5
81 81 96 100 100 100 100 84 100 100 100 65 87 66 80 100 100 29 18 5 5 5 5 5 5 5 5
42 12 23 87 99 87 69 100 100 100 100 100 79 96 99 100 100 100 79 41 22 5 5 5 5 5 5
81 6 10 44 55 87 86 100 100 100 100 100 100 65 71 100 98 100 100 100 98 100 92 81 5 5 5
5 5 23 100 100 100 100 100 100 100 100 100 100 100 91 92 99 100 100 100 100 100 100 100 100 82 78
5 5 5 76 100 100 100 100 100 100 100 100 100 100 100 100 100 100 100 100 100 100 100 100 100 100 100
5 5 5 67 100 100 100 100 100 89 100 100 100 100 100 100 100 100 100 100 100 100 100 100 100 100 100
5 5 5 12 87 100 100 100 100 100 100 100 100 100 100 100 100 100 100 100 100 100 100 100 100 100 100
5 6 15 81 51 94 88 100 100 100 100 100 100 100 100 100 100 100 100 100 100 100 100 100 100 100 100
48 76 82 90 94 86 98 93 73 100 100 100 100 100 100 100 100 100 100 100 100 100 100 100 100 100 100
100 92 16 63 86 95 100 96 90 100 100 100 100 100 100 100 100 100 100 100 100 100 100 100 100 100 100
100 100 100 100 100 98 99 90 33 100 100 100 100 100 100 100 100 100 100 100 100 100 100 100 100 100 100

GFSFLT2_prec_cloud_198.txt.gz
Cloud_Cover
4 2 4 4 5 5 3 2 1 1 0 0 4 22 100 96 21 50 37 50 4 0 0 3 0 0 1
2 4 5 5 5 5 5 5 0 2 3 0 0 0 3 28 3 42 100 9 0 0 0 0 0 0 0
4 3 5 80 5 7 3 5 5 3 5 26 9 16 6 4 5 1 9 88 0 0 4 0 0 0 0
5 4 32 63 26 48 40 33 5 4 33 86 35 5 5 5 35 84 5 5 5 0 0 0 0 0 0
82 91 17 36 11 78 96 100 49 78 14 5 87 30 60 88 100 95 19 4 5 5 6 3 5 4 2
83 9 5 5 91 98 53 31 6 8 91 12 60 33 95 39 5 75 71 18 5 3 3 4 5 5 5
4 0 5 5 89 85 14 10 5 6 72 100 74 100 100 80 76 97 100 100 100 97 5 5 5 5 5
5 5 4 9 99 100 47 57 38 31 97 100 100 100 100 100 100 94 93 100 100 100 100 85 5 97 87
0 2 2 3 1 45 84 89 100 100 100 100 93 99 97 100 100 100 100 100 100 100 100 100 100 99 100
5 1 0 0 2 0 2 99 100 100 90 84 97 100 100 100 100 100 100 100 100 100 100 100 100 100 100
5 5 5 5 5 14 85 96 92 100 95 91 91 100 100 100 100 100 100 100 100 100 100 100 100 100 100
5 10 5 5 43 5 20 91 98 87 57 100 100 100 100 100 100 100 100 100 100 100 100 100 100 100 100
43 5 5 16 82 82 59 14 5 14 70 100 100 100 100 100 100 100 100 100 100 100 100 100 100 100 100
5 5 58 84 98 100 84 16 22 5 5 94 100 100 100 100 100 100 100 100 100 100 100 100 100 100 100
94 100 99 94 35 63 100 85 92 85 5 100 100 100 100 100 100 100 100 100 100 100 100 100 100 100 100
94 100 100 100 90 95 100 100 100 93 75 100 98 100 100 100 100 100 100 100 100 100 100 100 100 100 100
99 100 100 100 100 95 100 100 99 100 98 100 99 100 100 100 100 100 100 100 100 100 100 100 100 100 100

GFSFLT2_prec_cloud_201.txt.gz
Cloud_Cover
91 100 99 74 6 2 4 2 2 0 0 5 5 5 5 4 5 5 5 5 6 25 86 100 1 0 0
6 5 0 0 0 14 100 13 5 5 2 4 5 5 5 28 22 44 68 29 32 5 28 42 14 0 0
0 0 0 0 3 5 4 1 1 2 2 0 0 5 5 6 20 25 49 41 75 70 31 65 60 11 1
5 33 59 3 4 5 6 87 12 0 0 0 5 4 5 5 11 55 84 100 100 100 100 94 99 98 5
19 5 5 5 5 1 5 5 5 0 1 3 0 1 5 5 5 33 66 100 100 100 100 100 100 100 20
4 5 5 5 5 5 4 25 8 3 5 5 5 5 5 27 27 48 10 5 26 100 100 100 100 20 66
1 3 5 3 18 5 6 28 16 6 32 100 5 17 85 15 14 6 5 63 93 30 100 100 100 100 17
0 0 2 5 12 5 5 60 91 7 5 42 5 5 5 4 82 65 100 100 100 100 100 100 100 100 100
5 5 5 5 5 5 8 49 96 36 28 96 44 38 6 6 5 99 97 100 100 100 100 100 100 100 100
5 5 5 5 5 5 32 100 100 100 91 98 8 96 100 90 91 63 100 100 100 100 100 100 100 100 100
25 5 5 5 5 5 70 68 95 28 8 100 62 51 100 100 100 100 100 100 100 100 100 100 100 100 100
7 5 7 25 5 19 100 98 93 54 5 84 100 100 100 100 100 100 100 100 100 100 100 100 100 100 100
10 76 9 25 5 25 16 100 24 5 8 8 22 99 100 100 100 100 100 100 100 100 100 100 100 100 100
47 36 79 92 82 55 17 5 71 31 5 76 68 100 100 100 100 100 100 100 100 100 100 100 100 100 100
94 100 100 100 97 11 10 57 100 74 16 43 72 100 100 100 100 100 100 100 100 100 100 100 100 100 100
99 87 93 100 99 55 34 94 99 86 35 61 84 90 100 86 100 100 100 100 100 100 100 100 100 100 100
100 100 60 98 100 100 34 50 97 98 92 98 84 78 89 98 100 100 100 100 100 100 100 100 100 100 100

GFSFLT2_prec_cloud_204.txt.gz
Cloud_Cover
0 5 6 96 17 84 100 91 39 2 0 0 0 3 3 2 41 21 52 42 100 100 26 99 100 100 100
5 15 5 2 0 0 0 1 1 2 4 4 1 3 4 2 2 5 5 40 100 100 100 99 77 100 100
3 5 5 5 5 5 5 2 4 2 5 5 23 69 5 5 5 9 5 5 5 5 100 100 100 100 100
52 5 5 5 17 10 4 3 4 2 0 0 0 0 1 4 4 2 0 5 34 10 5 91 100 100 100
5 5 5 4 4 5 10 7 15 5 4 3 2 0 3 4 3 5 7 100 100 99 99 64 93 100 100
1 0 0 0 3 5 50 75 35 2 5 3 0 0 0 0 2 5 5 5 100 100 100 99 9 5 100
0 0 4 0 5 23 11 18 86 18 100 100 3 5 5 4 5 5 13 100 100 100 100 84 5 5 51
0 0 5 5 19 34 5 6 95 96 86 98 61 8 3 4 4 5 5 24 60 100 100 100 28 72 100
0 3 5 5 6 5 5 83 100 100 48 99 68 18 5 0 1 11 8 16 79 84 100 100 100 100 91
1 2 5 11 5 50 25 100 100 100 57 65 5 66 83 5 1 3 31 16 100 82 100 100 100 100 100
5 5 5 5 5 5 5 88 85 83 41 98 9 51 100 100 84 72 100 100 100 100 100 100 100 100 100
5 5 5 78 74 5 5 8 75 92 90 82 72 44 86 99 100 70 95 97 100 100 100 100 100 100 100
5 5 5 55 98 61 6 5 5 5 9 18 30 98 100 100 100 100 100 100 100 100 100 100 100 100 100
7 8 22 90 100 99 47 6 85 78 5 5 100 100 98 100 100 100 100 100 100 100 100 100 100 100 100
47 20 83 97 99 100 62 69 95 84 41 18 60 77 75 94 94 99 100 100 100 100 100 100 100 100 100
92 90 97 92 50 100 100 100 88 63 50 69 80 36 68 4 13 98 100 100 100 100 100 100 100 100 100
100 100 100 82 80 99 100 100 100 62 34 89 82 92 93 100 8 9 100 100 100 100 100 100 100 100 100

GFSFLT2_prec_cloud_207.txt.gz
Cloud_Cover
0 0 0 0 0 0 2 8 33 83 93 69 80 6 5 5 5 13 6 44 65 100 100 37 100 100 100
0 5 4 5 5 1 0 4 2 3 5 5 5 6 5 5 5 5 5 5 5 3 5 43 66 12 23
4 4 5 9 5 12 5 7 5 5 5 5 3 0 2 1 2 5 4 5 5 16 31 100 100 99 100
5 5 5 5 5 6 38 5 5 2 0 0 0 0 0 0 2 4 2 5 5 11 100 100 100 63 5
5 5 6 5 14 3 5 17 58 4 0 0 0 3 0 0 0 0 5 5 5 5 69 100 100 100 100
5 2 5 0 3 5 5 92 97 5 18 100 78 5 5 5 2 5 5 5 33 100 100 100 100 100 100
5 0 0 0 5 5 6 78 91 32 52 44 61 5 5 5 2 5 5 8 58 100 100 100 100 100 100
0 0 2 5 18 10 98 78 5 5 26 93 21 95 5 5 4 5 5 5 40 100 71 87 100 100 100
0 4 5 5 5 10 27 64 59 35 61 98 75 7 5 2 0 5 5 18 87 100 100 100 100 100 100
2 5 5 5 5 25 96 86 76 100 84 92 7 28 58 5 4 5 5 8 98 21 97 100 100 100 100
45 5 5 4 5 5 94 95 61 93 39 100 85 100 80 86 5 5 5 21 39 56 100 90 100 100 100
63 26 5 5 5 5 79 77 32 10 5 6 90 89 97 93 78 7 79 100 76 90 95 100 100 100 100
46 6 5 5 5 6 70 100 53 68 7 8 95 61 100 99 96 98 100 100 100 93 100 100 100 100 100
74 24 10 23 19 86 85 100 74 90 95 5 5 91 81 67 83 57 48 100 100 100 100 100 100 100 100
45 73 75 86 93 95 100 94 99 82 99 98 5 54 79 58 95 12 6 97 100 100 100 100 100 100 100
86 88 74 90 99 100 94 95 100 82 64 74 79 74 30 5 6 7 94 94 100 100 100 100 100 100 100
100 98 89 93 74 86 100 98 89 71 59 99 86 100 96 94 5 5 51 57 100 100 100 100 100 100 100

GFSFLT2_prec_cloud_213.txt.gz
Cloud_Cover
87 98 100 100 100 90 100 68 84 91 15 5 5 31 27 22 5 5 13 53 5 5 5 5 21 55 5
100 100 100 94 100 100 91 9 18 63 13 100 73 4 5 5 5 5 5 5 5 5 5 3 5 5 6
100 100 100 100 84 36 86 13 99 100 95 89 56 21 5 5 5 5 4 5 5 13 19 7 5 5 5
100 100 31 28 5 51 86 100 56 33 29 5 5 5 0 5 5 5 5 52 47 5 5 5 5 5 90
99 7 73 38 54 93 15 46 95 15 5 5 5 5 0 0 5 5 5 5 5 5 5 5 5 10 100
90 25 54 95 5 5 41 37 68 10 32 5 10 4 0 0 5 5 5 5 5 5 5 5 5 5 25
45 84 77 32 90 42 9 88 72 8 51 38 14 5 4 5 5 5 5 5 5 5 5 7 5 14 100
99 54 7 5 5 36 88 100 97 51 36 62 5 5 5 3 0 5 5 5 5 5 28 74 63 80 100
97 10 5 6 13 78 87 100 94 6 27 25 10 41 5 1 3 0 5 5 5 5 5 100 100 100 100
64 5 5 5 5 5 10 95 48 95 22 37 72 17 45 3 1 5 17 5 5 5 5 20 96 100 100
5 5 5 5 5 5 5 34 98 93 84 100 67 33 56 56 5 5 5 5 5 5 5 5 72 100 100
5 5 13 17 14 32 36 52 74 92 27 100 99 92 91 91 78 5 5 5 5 5 5 9 97 99 100
78 95 63 67 95 91 95 100 99 33 13 52 100 81 99 94 96 98 94 5 5 10 5 5 5 18 100
99 100 100 100 100 100 100 84 79 9 26 65 86 84 71 63 68 97 5 80 5 5 5 6 5 5 70
100 100 100 100 100 99 57 83 99 96 52 35 62 43 12 31 86 5 5 5 5 5 15 17 13 84 100
100 100 100 100 100 84 84 85 97 100 80 41 46 59 14 17 45 6 5 8 5 9 18 84 32 96 100
100 100 100 100 98 78 83 85 74 80 66 72 89 100 98 97 27 42 36 5 73 49 29 8 85 100 100

GFSFLT2_prec_cloud_216.txt.gz
Cloud_Cover
100 100 100 99 100 100 85 100 79 60 12 26 96 21 98 67 7 5 5 5 5 5 5 5 5 88 70
90 67 100 100 100 40 64 99 87 50 94 30 84 5 96 98 5 5 5 5 5 5 5 5 5 5 6
100 100 84 94 50 49 95 96 100 92 19 10 62 94 59 5 12 5 5 5 5 5 5 5 5 5 5
100 47 68 100 100 100 59 89 86 75 58 58 6 66 5 5 4 5 5 5 5 5 5 5 5 5 5
100 100 98 99 94 72 34 37 12 54 94 76 29 32 8 5 5 5 5 5 5 5 5 5 5 5 5
100 100 100 100 100 95 32 62 87 82 100 98 99 20 5 5 4 5 5 5 5 5 5 5 5 0 5
100 100 94 83 62 95 59 82 97 92 50 79 91 80 5 5 5 5 5 5 5 5 5 22 5 19 66
74 62 37 66 84 92 100 99 93 71 88 98 100 77 55 42 5 5 5 5 5 5 5 5 12 79 100
96 40 65 55 94 15 15 95 60 81 32 85 39 19 61 14 9 5 5 5 5 5 5 5 14 31 12
100 79 12 72 27 23 90 100 85 51 5 80 10 16 99 45 46 5 5 5 5 5 5 5 55 5 29
99 100 52 28 51 69 79 100 100 100 46 100 98 89 100 92 88 8 5 5 5 5 5 5 10 35 34
65 98 95 37 61 63 96 100 100 100 100 100 100 100 99 96 93 9 5 5 5 5 5 5 5 5 6
97 85 95 100 100 100 100 100 94 39 60 84 73 85 100 100 95 9 56 5 5 5 5 27 5 5 5
100 100 100 100 100 100 100 77 74 12 14 97 72 100 100 97 66 58 5 82 9 59 58 21 19 5 5
100 98 100 98 100 100 97 94 92 94 98 92 81 60 98 77 100 49 6 12 27 65 12 42 5 5 5
99 100 100 100 100 90 88 92 99 100 100 100 99 100 66 33 36 5 40 40 19 29 28 89 6 5 95
100 100 97 99 100 100 94 98 94 100 91 95 100 100 100 97 5 9 70 34 49 51 16 60 82 5 100